Location: Melbourne
(37.8666°S, 145.1333°E)
Time: 22:51:47
(UTC+11:00)

Hubble Space Telescope - Visible Passes

Search period start: 11 December 2016 00:00
Search period end: 21 December 2016 00:00
Orbit: 538 x 542 km, 28.5° (Epoch: 10 December)

Date Brightness Start Highest point End Pass type
(mag) Time Alt. Az. Time Alt. Az. Time Alt. Az.
14 Dec 3.0 22:38:48 10° NW 22:39:37 14° NNW 22:39:37 14° NNW visible
15 Dec 2.5 22:28:42 10° NW 22:30:41 19° NNW 22:30:41 19° NNW visible
16 Dec 2.2 22:18:39 10° NW 22:21:35 22° N 22:21:35 22° N visible
17 Dec 2.1 22:08:38 10° NW 22:11:56 22° N 22:12:20 22° N visible
18 Dec 2.2 21:58:40 10° NW 22:01:56 22° N 22:02:59 20° NNE visible
19 Dec 2.3 21:48:44 10° NW 21:51:56 21° N 21:53:32 17° NNE visible
20 Dec 2.4 21:38:51 10° NW 21:41:56 20° N 21:44:04 14° NNE visible
